Wind_Speed
19 19 19 18 18 18 19 19 19 17 16 14 14 14 13 12 12 12 12 12 12 13 14 14 14 14 14 15 16 16 16 17 17 17 16 16 15 16 15 15 15 14 14 14
19 20 21 21 19 19 19 18 18 17 14 13 14 14 14 14 13 12 12 12 13 13 14 14 14 14 15 15 15 16 16 16 16 16 17 17 17 16 16 16 16 15 15 14
20 19 21 20 18 19 19 18 17 16 14 14 15 15 14 14 14 14 13 12 12 12 12 13 13 15 15 15 15 15 16 16 16 16 15 16 17 16 16 16 16 15 14 14
21 21 22 17 17 18 18 17 17 16 15 16 16 15 14 13 13 13 12 12 12 12 12 12 13 15 15 15 15 15 16 16 16 15 15 15 16 16 16 16 16 15 15 15
21 21 20 17 16 16 17 16 15 15 14 14 14 15 13 12 12 12 12 12 12 12 12 12 13 14 15 15 15 15 16 17 17 16 15 16 15 16 17 17 16 16 16 16
21 21 20 16 17 17 17 16 15 15 14 14 15 14 13 12 13 13 13 13 13 13 12 12 12 14 15 15 15 15 16 16 17 17 17 16 16 17 17 17 17 17 16 17
22 22 20 17 18 19 18 16 15 15 14 14 15 14 14 14 13 13 13 13 13 13 13 13 13 14 14 14 14 15 16 16 17 17 17 17 17 18 18 18 18 17 17 18
23 23 20 19 20 20 19 18 17 16 15 15 14 14 15 14 13 13 13 13 12 13 13 14 14 13 14 15 15 16 16 16 16 17 17 17 17 17 17 17 18 19 19 19
23 22 21 21 22 22 21 19 19 18 16 16 16 16 15 16 15 14 13 13 13 13 13 13 13 13 14 15 16 17 17 17 16 16 17 18 18 18 17 17 18 18 19 19
24 22 22 22 23 22 21 20 19 19 18 17 16 16 17 16 16 15 14 14 14 14 14 13 14 14 14 14 15 16 17 18 17 17 17 17 18 18 17 17 17 18 18 18
24 23 23 23 22 22 21 21 20 20 18 18 18 17 17 17 16 15 15 15 15 14 15 14 14 14 15 15 15 15 17 18 18 18 18 18 18 17 17 17 17 17 17 18
25 25 25 24 23 23 23 22 22 22 20 20 19 19 18 18 17 16 17 16 16 15 15 15 15 15 15 16 16 17 17 17 17 18 18 18 18 17 17 17 17 17 17 17
27 26 26 25 25 25 24 23 23 22 22 22 21 20 20 20 19 18 18 18 17 16 16 16 16 17 17 17 17 17 17 17 17 17 17 17 17 17 18 18 18 17 17 17
26 26 26 25 25 26 25 24 24 24 24 23 23 22 22 21 21 20 19 19 18 18 17 17 16 16 17 17 18 18 18 18 18 18 18 18 18 18 18 18 18 18 18 18
27 27 25 25 26 26 26 26 26 26 26 25 25 24 23 23 22 22 21 20 20 19 19 19 18 18 18 18 18 18 18 18 19 19 19 19 19 18 18 19 19 19 20 20
27 27 27 27 26 26 27 27 27 27 28 27 26 25 25 24 22 22 22 22 21 21 21 21 20 20 20 20 19 19 19 19 20 20 20 20 20 20 20 20 21 21 22 22
28 27 27 28 27 27 28 27 27 27 29 28 27 26 26 25 24 24 23 22 23 23 23 23 22 22 22 21 21 20 20 20 20 21 21 21 21 21 21 21 22 22 22 22
28 28 27 27 27 28 28 27 27 28 29 29 29 29 27 26 26 25 24 24 24 24 24 24 24 23 23 22 22 22 22 22 22 23 23 22 22 23 22 22 22 22 23 23
29 29 28 28 27 27 28 28 27 28 29 29 29 29 29 28 28 27 26 25 25 24 24 24 25 25 24 24 24 24 24 24 23 24 24 24 24 23 22 22 22 23 23 23
29 29 28 28 28 28 28 28 28 29 29 30 30 30 30 29 29 28 27 27 26 25 25 25 26 26 26 25 25 25 25 24 24 24 24 24 23 23 23 23 23 23 23 23
29 29 29 29 29 29 29 29 29 29 29 29 30 30 30 29 29 29 29 28 28 28 27 27 26 26 26 25 25 25 25 24 24 24 24 23 23 23 23 23 23 23 23 24
28 28 28 29 29 29 29 30 30 29 29 28 29 29 29 29 29 29 29 29 29 29 28 27 26 26 26 26 26 25 25 24 24 24 24 24 24 24 24 24 24 24 24 25
26 27 28 28 28 28 27 28 29 29 28 28 28 28 28 29 29 28 28 28 29 29 28 27 27 27 27 27 26 25 25 24 24 25 25 25 25 24 24 24 25 25 25 26
26 27 27 27 28 27 26 27 28 28 28 28 29 29 28 28 28 28 28 28 28 28 27 27 27 27 27 27 26 26 26 26 25 25 25 26 26 26 26 25 25 26 26 27
27 27 26 27 27 26 27 27 28 29 29 29 29 29 29 29 28 28 28 28 28 27 26 26 27 27 27 27 27 27 27 27 27 26 26 26 27 27 27 28 28 27 27 27
26 26 26 26 26 27 27 27 28 28 29 29 28 29 29 29 29 29 28 28 27 27 27 27 27 27 27 26 26 26 26 26 27 27 26 26 27 27 28 29 29 29 29 29
24 25 25 26 26 27 27 27 26 27 27 27 28 28 29 29 29 29 28 28 27 27 27 27 28 27 27 27 27 26 26 27 26 26 27 27 27 27 28 28 29 29 29 29
Wind_Direction
259 260 262 260 257 258 261 263 263 265 267 268 267 265 265 261 260 260 258 255 252 253 255 251 247 247 251 252 249 248 249 249 248 249 250 251 250 249 248 248 249 255 258 260
259 261 261 261 258 256 258 259 261 264 264 265 263 261 262 261 260 261 261 259 254 252 254 253 251 250 252 253 251 249 248 249 248 248 249 250 249 248 248 247 250 254 259 256
258 258 259 258 258 255 257 259 260 262 262 260 260 261 260 258 257 262 263 261 254 251 252 253 252 254 255 253 252 251 251 251 250 251 251 252 251 250 248 248 251 255 255 255
259 258 258 260 256 256 257 260 261 261 259 258 258 259 258 256 257 262 261 256 255 254 252 253 252 253 251 248 248 250 251 252 251 253 253 255 253 251 249 249 251 254 254 254
257 257 256 254 254 254 255 258 260 259 256 255 255 252 253 254 256 259 258 255 253 252 253 254 252 249 247 247 247 248 250 251 252 253 255 256 255 254 250 249 251 254 253 253
255 255 253 252 251 250 255 257 257 255 254 254 252 251 250 250 251 252 253 254 253 251 253 254 254 251 249 249 249 249 250 251 250 248 254 256 258 254 250 250 252 253 254 255
254 255 254 251 249 252 255 256 254 253 252 252 251 251 250 250 251 252 251 252 253 253 254 257 256 254 255 256 256 254 252 252 252 252 254 256 258 256 252 253 251 253 257 259
253 253 253 252 250 250 252 252 252 250 250 250 251 248 248 251 253 253 250 250 252 253 254 255 256 255 257 258 258 257 255 254 255 255 256 256 256 254 252 251 252 255 259 261
252 252 252 250 251 249 250 251 250 248 249 249 250 248 250 251 252 251 252 253 251 250 253 256 257 258 259 258 258 257 256 256 260 260 261 260 257 254 253 253 255 256 258 261
251 249 248 248 248 249 250 250 251 250 251 248 248 247 249 251 249 249 252 254 255 253 254 257 258 260 261 261 260 257 254 255 259 259 262 262 260 256 253 256 258 259 259 261
250 250 248 247 249 249 248 247 247 249 249 246 245 246 249 249 252 252 254 254 256 259 258 258 259 261 262 264 263 259 255 256 258 259 260 262 261 258 254 256 259 260 261 262
248 248 249 247 247 247 248 249 248 248 246 244 245 246 249 250 250 251 253 254 255 257 259 258 258 260 262 263 263 261 259 259 259 259 259 261 261 257 254 257 260 261 262 263
246 247 247 248 247 246 244 245 246 247 245 244 246 247 248 250 249 250 253 253 253 255 258 259 258 258 259 262 263 260 260 260 260 258 258 260 261 261 261 262 264 264 264 266
248 250 248 247 246 245 243 243 243 243 244 246 247 246 247 249 249 249 252 252 252 254 256 257 259 261 262 263 263 263 261 262 261 260 261 261 262 263 263 265 265 265 266 269
248 251 248 246 245 246 245 242 241 242 244 247 249 247 246 247 249 249 250 251 252 255 256 258 259 261 263 264 265 265 265 263 261 261 261 261 262 263 264 265 265 266 268 270
246 247 247 247 246 246 246 244 243 242 243 246 248 247 246 245 247 248 249 252 253 255 257 258 259 261 264 265 264 265 265 265 263 262 262 263 263 264 266 267 266 266 269 269
245 247 247 247 248 247 245 244 243 243 243 244 245 245 244 243 245 247 250 253 255 257 257 257 259 262 265 267 267 267 266 266 265 263 262 262 264 265 266 266 266 268 270 269
245 247 248 249 248 246 245 244 243 243 245 245 245 244 244 244 245 248 251 254 256 257 256 256 258 261 264 267 268 267 266 266 266 264 263 262 264 264 264 265 267 268 268 268
247 248 247 247 247 246 245 245 244 245 245 244 244 244 244 244 246 249 251 254 257 258 256 256 258 261 263 265 267 266 264 265 265 263 261 263 264 264 264 266 268 268 268 269
247 247 246 247 247 248 247 245 245 245 245 245 244 244 243 244 245 247 250 253 256 258 258 258 260 261 262 264 265 265 264 263 263 263 262 262 263 264 265 266 268 268 270 272
248 247 247 247 247 248 248 246 245 246 247 245 245 244 243 243 246 248 248 251 254 257 259 260 260 260 260 262 263 264 263 262 262 262 262 262 263 264 265 265 267 268 271 273
248 247 246 247 248 248 248 246 245 246 245 244 245 244 242 243 246 247 249 251 254 256 257 258 259 259 258 259 260 262 263 262 261 261 261 262 263 264 265 266 267 269 272 274
249 249 247 246 246 246 246 244 244 245 244 244 244 243 244 245 246 247 249 251 253 254 255 256 256 256 257 258 259 260 261 262 262 263 263 262 263 264 266 267 268 269 272 273
248 248 246 246 246 246 244 244 244 244 244 245 244 243 244 244 245 248 250 252 254 253 252 253 254 254 255 258 259 260 260 261 262 264 264 264 264 265 266 268 269 270 273 273
246 245 244 244 244 243 243 244 245 245 245 245 245 243 243 244 246 248 250 252 253 252 251 251 252 253 254 257 259 260 260 261 262 264 264 265 265 266 267 268 270 272 273 274
246 244 243 244 245 245 244 245 247 247 247 246 245 243 244 245 246 249 250 251 252 252 250 250 251 252 253 256 259 259 260 261 262 263 264 265 267 268 269 269 270 272 273 275
247 245 244 246 247 247 247 247 248 247 246 245 244 245 246 246 247 248 249 250 252 251 250 250 251 253 254 256 257 259 260 261 262 263 264 266 268 269 270 271 272 273 274 275
Height
5804 5804 5804 5805 5805 5805 5805 5805 5806 5807 5808 5810 5810 5810 5810 5811 5811 5811 5812 5813 5813 5814 5815 5816 5816 5817 5817 5818 5818 5819 5820 5821 5822 5823 5824 5824 5825 5826 5826 5827 5828 5829 5829 5829
5798 5799 5798 5799 5800 5800 5800 5801 5801 5803 5804 5805 5805 5806 5806 5806 5807 5808 5808 5808 5809 5810 5811 5811 5812 5813 5813 5814 5814 5815 5816 5816 5817 5818 5819 5820 5821 5821 5822 5823 5824 5824 5825 5825
5793 5793 5793 5794 5796 5795 5796 5797 5797 5798 5800 5800 5800 5801 5802 5802 5802 5803 5804 5804 5805 5805 5806 5807 5808 5809 5809 5810 5810 5811 5812 5812 5813 5814 5815 5816 5816 5817 5818 5819 5820 5820 5820 5821
5787 5788 5788 5793 5791 5791 5791 5792 5793 5793 5794 5795 5796 5797 5797 5798 5799 5799 5800 5801 5801 5801 5803 5804 5804 5805 5805 5806 5806 5807 5808 5808 5809 5810 5811 5811 5812 5813 5814 5815 5815 5816 5816 5817
5781 5781 5782 5785 5786 5786 5786 5787 5788 5788 5789 5790 5791 5792 5793 5794 5795 5796 5796 5797 5798 5799 5799 5800 5800 5801 5801 5802 5803 5803 5804 5805 5806 5806 5807 5807 5808 5809 5809 5810 5811 5811 5812 5812
5775 5775 5777 5781 5781 5780 5782 5782 5783 5783 5784 5785 5786 5788 5790 5790 5791 5791 5792 5793 5793 5794 5795 5796 5797 5797 5798 5798 5799 5799 5800 5801 5801 5802 5803 5803 5804 5804 5805 5805 5806 5807 5807 5808
5769 5769 5771 5774 5775 5775 5777 5779 5778 5778 5779 5780 5782 5784 5785 5786 5786 5787 5788 5788 5789 5790 5791 5792 5792 5793 5794 5795 5795 5795 5796 5796 5797 5798 5798 5799 5799 5799 5800 5801 5801 5802 5802 5803
5763 5764 5768 5768 5769 5770 5771 5772 5772 5773 5774 5775 5777 5778 5780 5781 5782 5783 5784 5784 5785 5786 5787 5788 5788 5789 5790 5790 5791 5791 5791 5792 5792 5793 5793 5794 5794 5795 5795 5796 5796 5797 5798 5798
5757 5760 5761 5761 5762 5763 5764 5766 5767 5768 5770 5771 5772 5773 5775 5776 5777 5779 5780 5781 5781 5782 5783 5784 5784 5785 5785 5786 5786 5786 5786 5787 5788 5788 5789 5789 5789 5790 5790 5791 5791 5792 5792 5793
5750 5752 5753 5754 5756 5757 5759 5760 5761 5763 5765 5766 5767 5768 5770 5771 5773 5774 5775 5776 5777 5778 5779 5780 5780 5781 5781 5781 5781 5782 5782 5783 5783 5784 5784 5784 5784 5785 5785 5786 5786 5786 5787 5787
5742 5745 5746 5748 5749 5751 5752 5754 5756 5757 5759 5760 5762 5764 5765 5767 5768 5769 5770 5771 5773 5774 5774 5775 5776 5776 5777 5777 5777 5778 5778 5778 5779 5779 5779 5779 5779 5780 5780 5781 5781 5781 5782 5782
5736 5738 5739 5741 5743 5744 5746 5748 5749 5751 5753 5754 5756 5758 5760 5762 5763 5765 5766 5767 5768 5769 5770 5770 5771 5772 5772 5772 5772 5773 5773 5773 5774 5774 5775 5775 5775 5775 5775 5776 5776 5776 5776 5777
5728 5730 5731 5734 5735 5737 5739 5741 5743 5745 5747 5749 5750 5752 5754 5756 5758 5760 5761 5762 5763 5764 5765 5766 5766 5767 5767 5767 5767 5768 5768 5769 5769 5769 5770 5770 5770 5770 5771 5771 5771 5771 5771 5771
5720 5722 5724 5726 5728 5730 5732 5734 5736 5739 5741 5743 5745 5746 5748 5750 5752 5754 5755 5757 5758 5759 5759 5760 5761 5761 5762 5762 5762 5762 5763 5763 5763 5764 5764 5765 5765 5765 5766 5766 5766 5766 5766 5766
5712 5713 5716 5718 5720 5722 5724 5726 5728 5731 5733 5736 5738 5740 5742 5744 5746 5747 5749 5750 5751 5753 5754 5754 5755 5756 5756 5757 5757 5757 5757 5757 5758 5758 5759 5759 5759 5760 5760 5760 5760 5760 5760 5760
5704 5705 5707 5710 5712 5713 5716 5718 5720 5723 5725 5728 5730 5732 5734 5737 5738 5740 5742 5743 5745 5746 5747 5748 5749 5750 5750 5751 5751 5751 5751 5751 5751 5752 5752 5753 5753 5754 5754 5754 5754 5754 5754 5754
5695 5697 5699 5701 5703 5705 5707 5710 5712 5715 5717 5720 5722 5724 5727 5729 5731 5733 5735 5736 5738 5739 5740 5741 5742 5743 5744 5744 5744 5745 5745 5745 5745 5745 5746 5746 5747 5747 5747 5747 5747 5747 5747 5747
5687 5689 5691 5693 5695 5697 5699 5701 5704 5706 5709 5711 5714 5716 5718 5721 5723 5726 5727 5729 5730 5731 5733 5734 5735 5736 5736 5737 5737 5737 5738 5738 5738 5739 5739 5739 5740 5740 5740 5740 5740 5740 5740 5740
5677 5680 5682 5684 5686 5688 5690 5692 5695 5697 5699 5702 5704 5707 5710 5712 5715 5717 5719 5721 5722 5723 5725 5726 5727 5728 5728 5729 5729 5730 5730 5730 5731 5731 5731 5732 5732 5732 5732 5733 5733 5732 5732 5732
5669 5671 5673 5675 5677 5679 5681 5684 5686 5688 5690 5693 5695 5697 5700 5703 5706 5708 5710 5712 5714 5715 5716 5717 5718 5719 5720 5720 5721 5721 5722 5722 5723 5723 5723 5724 5724 5724 5725 5725 5725 5725 5725 5724
5660 5662 5664 5666 5668 5670 5672 5675 5677 5679 5681 5683 5685 5688 5690 5693 5696 5698 5700 5703 5705 5706 5707 5708 5709 5710 5711 5712 5713 5713 5714 5714 5715 5715 5716 5716 5716 5716 5717 5717 5717 5717 5717 5716
5651 5653 5655 5657 5659 5661 5663 5665 5667 5669 5671 5673 5676 5678 5681 5683 5686 5688 5691 5693 5695 5696 5697 5699 5700 5701 5703 5703 5704 5705 5706 5706 5707 5707 5708 5708 5708 5709 5709 5709 5709 5709 5709 5708
5642 5644 5646 5648 5650 5652 5654 5656 5658 5660 5662 5665 5667 5669 5672 5674 5676 5679 5681 5683 5685 5686 5687 5689 5691 5692 5693 5694 5696 5697 5697 5698 5699 5699 5699 5700 5700 5700 5701 5701 5701 5700 5700 5700
5633 5635 5637 5639 5641 5643 5645 5647 5649 5651 5653 5656 5658 5660 5663 5665 5667 5669 5671 5673 5674 5676 5678 5679 5681 5683 5684 5685 5686 5688 5689 5689 5690 5690 5691 5691 5692 5692 5692 5692 5692 5692 5691 5691
5625 5627 5629 5630 5632 5634 5636 5638 5640 5642 5644 5646 5648 5651 5653 5655 5658 5660 5662 5664 5665 5666 5668 5670 5672 5673 5675 5676 5677 5678 5679 5680 5681 5682 5682 5682 5683 5683 5683 5683 5683 5683 5682 5682
5617 5619 5620 5622 5624 5626 5628 5630 5632 5634 5635 5637 5639 5641 5643 5646 5648 5650 5652 5654 5656 5657 5659 5661 5663 5664 5666 5667 5668 5669 5670 5671 5672 5672 5673 5673 5673 5674 5674 5674 5673 5673 5673 5673
5609 5611 5612 5614 5615 5617 5619 5621 5622 5624 5626 5628 5630 5632 5634 5637 5639 5641 5643 5645 5646 5648 5650 5651 5653 5655 5657 5658 5659 5660 5661 5662 5662 5663 5663 5664 5664 5664 5664 5664 5664 5664 5663 5663